Location: *
(49.4547°N, 7.9131°E)
Time: 13:46:18
(UTC+00:00)

COSMOS 2428 - Pass Details

Date: 22 September 2019
Orbit: 845 x 856 km, 70.9° (Epoch: 18 October)

Event Time Altitude Azimuth Distance (km) Brightness Sun altitude
Rises 17:48:36 0° 329° (NNW) 3,417 6.4 -4.3°
Reaches altitude 10° 17:51:04 10° 327° (NNW) 2,478 5.7 -4.7°
Maximum altitude 17:56:42 66° 246° (WSW) 923 3.2 -5.6°
Drops below altitude 10° 18:02:18 10° 166° (SSE) 2,466 4.9 -6.5°
Sets 18:04:45 0° 163° (SSE) 3,398 5.6 -6.9°
